Home   Weather   Portimão   Past weeks

Flag for Portugal Past Weather in Portimão, Portugal — Yesterday and Last 2 Weeks

Now
61 °F

Passing clouds.


Feels Like: 61 °F
Forecast: 55 / 64 °F
Wind: 5 mph from East

Location: Faro / Aeroporto

Current Time: Apr 29, 2017 at 1:12:20 am

Latest Report: Apr 29, 2017 at 12:30 am


Visibility: N/A

Pressure: 29.83 "Hg

Humidity: 100%

Dew Point: 61 °F

Location of PortimãoLocation

Past Weather in Portimão — Graph

°F

Portimão Temperature Yesterday

Maximum temperature yesterday: 70 °F (at 2:00 pm)
Minimum temperature yesterday: 57 °F (at 12:00 am)
Average temperature yesterday: 63 °F

High & Low Weather Summary for the Past Weeks

 TemperatureHumidityPressure
High82 °F (Apr 18, 2:30 pm)100% (Apr 17, 1:00 am)30.15 "Hg (Apr 17, 1:00 am)
Low55 °F (Apr 14, 6:00 am)37% (Apr 18, 1:00 pm)29.71 "Hg (Apr 28, 6:00 am)
Average65 °F75%29.95 "Hg
* Reported Apr 13 11:00 pm — Apr 28 11:30 pm, Portimão, Weather by CustomWeather, © 2017

Note: Actual official high and low records may vary slightly from our data, if they occured in-between our weather recording intervals... More about our weather records

Advertising

Portimão Weather History for the Previous 24 Hours

Scroll right to see more
 ConditionsComfort  
Time TempWeatherWind HumidityBarometerVisibility
11:30 pm
Fri, Apr 28
63 °FPassing clouds.6 mph94%29.83 "HgN/A
11:00 pm63 °FPassing clouds.5 mph94%29.83 "HgN/A
10:30 pm63 °FPassing clouds.8 mph94%29.83 "HgN/A
10:00 pm63 °FPassing clouds.8 mph100%29.83 "HgN/A
9:30 pm63 °FPassing clouds.8 mph100%29.83 "HgN/A
9:00 pm63 °FPassing clouds.8 mph94%29.80 "HgN/A
8:30 pm63 °FPassing clouds.8 mph94%29.80 "HgN/A
8:00 pm63 °FScattered clouds.5 mph94%29.77 "HgN/A
7:30 pm63 °FPartly sunny.3 mph94%29.77 "HgN/A
7:00 pm63 °FPartly sunny.8 mph94%29.77 "HgN/A
6:30 pm64 °FPartly sunny.3 mph88%29.77 "HgN/A
6:00 pm64 °FPartly sunny.5 mph88%29.77 "HgN/A
5:30 pm64 °FScattered clouds.6 mph88%29.77 "HgN/A
5:00 pm66 °FScattered clouds.8 mph83%29.77 "HgN/A
4:30 pm66 °FScattered clouds.10 mph83%29.77 "HgN/A
4:00 pm68 °FScattered clouds.10 mph78%29.77 "HgN/A
3:30 pm68 °FScattered clouds.8 mph78%29.77 "HgN/A
3:00 pm70 °FScattered clouds.10 mph73%29.77 "HgN/A
2:30 pm70 °FScattered clouds.8 mph64%29.74 "HgN/A
2:00 pm70 °FScattered clouds.5 mph64%29.74 "HgN/A
1:00 pm68 °FScattered clouds.9 mph69%29.77 "HgN/A
12:30 pm68 °FScattered clouds.9 mph73%29.77 "HgN/A
12:00 pm68 °FScattered clouds.12 mph69%29.77 "HgN/A
11:30 am66 °FScattered clouds.9 mph73%29.77 "HgN/A
11:00 am64 °FPartly sunny.12 mph78%29.77 "HgN/A
10:30 am64 °FBroken clouds.7 mph78%29.77 "HgN/A
10:00 am64 °FPartly sunny.8 mph78%29.77 "HgN/A
9:30 am64 °FScattered clouds.8 mph83%29.74 "HgN/A
8:30 am63 °FPassing clouds.6 mph88%29.74 "HgN/A
8:00 am59 °FPartly sunny.6 mph94%29.74 "HgN/A
7:30 am59 °FPartly sunny.5 mph94%29.74 "HgN/A
7:00 am59 °FPartly sunny.7 mph94%29.74 "HgN/A
6:30 am59 °FPassing clouds.10 mph94%29.71 "HgN/A
6:00 am59 °FPassing clouds.12 mph94%29.71 "HgN/A
5:30 am59 °FPassing clouds.12 mph94%29.74 "HgN/A
5:00 am59 °FPassing clouds.12 mph94%29.74 "HgN/A
4:30 am59 °FPassing clouds.9 mph94%29.74 "HgN/A
4:00 am59 °FPassing clouds.9 mph94%29.74 "HgN/A
3:30 am57 °FPassing clouds.10 mph100%29.77 "HgN/A
3:00 am57 °FPassing clouds.8 mph100%29.77 "HgN/A
2:30 am57 °FLight rain. Passing clouds.9 mph100%29.77 "Hg5 mi
2:00 am57 °FLight rain. Passing clouds.7 mph100%29.77 "Hg4 mi
1:30 am57 °FLight rain. Passing clouds.8 mph94%29.77 "Hg4 mi
1:00 am57 °FLight rain. Passing clouds.6 mph94%29.80 "Hg4 mi
Weather by CustomWeather, © 2017

See weather overviewHow to use our weather pages